Torna al catalogo

STARLINK-3623

AttivoComunicazioniVLEO
NORAD 51772·PAYLOAD·🇺🇸 United States

Lanciato Feb 25, 2022 da Vandenberg Space Force Base

Loading…

Prossimi Passaggi (prossime 24 ore)

TLE

AggiornatoSource: CelesTrak SupGP

Epoca: Sep 15, 2026, 02:21 UTC

1 51772C 22017E   26258.09840278 -.00030002  00000+0 -88653-3 0  2582
2 51772  53.1580 196.9424 0001261  85.8176 201.2346 15.34401267    18

Traccia STARLINK-3623 in tempo reale con AllMySat

Download on the App Store